2018-015B (43193 NORAD) Tracking and Keplerian Element Data

This shows tracking and keplerian element data for the satellite.

Feedback or suggestion? Click here.




ElementValue
Catalog43193
Name2018-015B
Epoch Orbit453
Epoch Day63.14247922
Epoch Year2018
RAAN193.8894
Inclination97.2134
Eccentricity0.0006787
Argument of Perigee321.7602
Mean Anonmoly38.3156
Mean Motion15.22613436
Decay Rate1.773E-05
L11 43193U 18015B 18063.14247922 .00001773 00000-0 79143-4 0 9990
L22 43193 97.2134 193.8894 0006787 321.7602 38.3156 15.22613436 4530

Live tracking and technical data element details for 2018-015B (NORAD 43193). 2018-015B can be tracked NOW for your location showing map with azimuth and elevation plus other details from your city location.

Track the satellite on the map from your city or location and see movement details for azimuth, elevation, latitude, longitude, range, height, and movement on the map or in text.







IsCatalogInMostPopularTable: catalog: 43193, numindb: 93
Update: records affected: 1



GetName: 43193 2018-015B

Hit Count: updated at: Fri, 17 Aug 2018 13:19:54 GMT